CW5398 Weather Reports


time (UTC)temp
F
wind
direction
speed
knots
gust
knots
rain 1hr
in
rain 24hr
in
rain mn
in
humidity
%
barometer
mb
20260904172517 60 242 0.0 0.0 0.00 0.01 0.01 80 1013.3
20260904171517 59 248 0.9 2.6 0.00 0.01 0.01 86 1013.3
20260904170517 58 248 0.9 2.6 0.00 0.01 0.01 87 1013.3
20260904165516 57 242 0.0 0.0 0.00 0.01 0.01 94 1013.3
20260904164516 56 242 0.0 0.0 0.00 0.01 0.01 97 1013.3
20260904163516 55 242 0.0 0.0 0.00 0.01 0.01 98 1013.3
20260904162516 55 248 0.0 0.9 0.00 0.01 0.01 99 1013.3
20260904161516 55 242 0.0 0.0 0.00 0.01 0.01 99 1013.3
20260904160516 54 242 0.0 0.0 0.01 0.01 0.01 99 1013.2
20260904155516 54 242 0.0 0.0 0.01 0.01 0.01 99 1013.0
20260904154536 53 242 0.0 0.0 0.01 0.01 0.01 99 1013.0
20260904153516 52 242 0.0 0.0 0.01 0.01 0.01 99 1012.8
20260904152516 52 242 0.0 0.0 0.01 0.01 0.01 99 1012.8
20260904151516 51 242 0.0 0.0 0.01 0.01 0.01 98 1012.8
20260904150536 51 248 0.0 0.9 0.00 0.00 0.00 98 1012.5
20260904145516 51 242 0.0 0.0 0.00 0.00 0.00 98 1012.7
20260904144516 51 242 0.0 0.0 0.00 0.00 0.00 98 1012.7
20260904143536 51 242 0.0 0.0 0.00 0.00 0.00 98 1012.7
20260904142518 50 242 0.0 0.0 0.00 0.00 0.00 98 1012.5
20260904141516 50 242 0.0 0.0 0.00 0.00 0.00 98 1012.5
20260904140516 50 242 0.0 0.0 0.00 0.00 0.00 98 1012.3
20260904135516 50 242 0.0 0.0 0.00 0.00 0.00 98 1011.9
20260904134516 50 242 0.0 0.0 0.00 0.00 0.00 98 1011.9
20260904133516 50 242 0.0 0.0 0.00 0.00 0.00 98 1011.7
20260904132516 50 248 0.0 1.7 0.00 0.00 0.00 98 1011.6
20260904131536 50 242 0.0 0.0 0.00 0.00 0.00 98 1011.6
20260904130536 50 242 0.0 0.0 0.00 0.00 0.00 98 1011.3
20260904125516 50 242 0.0 0.0 0.00 0.00 0.00 98 1011.3
20260904124516 50 242 0.0 0.0 0.00 0.00 0.00 97 1011.3
20260904123536 50 242 0.0 0.0 0.00 0.00 0.00 98 1011.2
20260904122516 50 242 0.0 0.0 0.00 0.00 0.00 98 1011.2
20260904121516 50 242 0.0 0.0 0.00 0.00 0.00 97 1011.2
20260904120516 50 242 0.0 0.0 0.00 0.00 0.00 97 1011.2
20260904115516 50 242 0.0 0.0 0.00 0.00 0.00 97 1011.1
20260904114536 49 242 0.0 0.0 0.00 0.00 0.00 97 1011.1
20260904113516 49 242 0.0 0.0 0.00 0.00 0.00 97 1010.9
20260904112536 49 242 0.0 0.0 0.00 0.00 0.00 97 1010.8
20260904111516 49 242 0.0 0.0 0.00 0.00 0.00 97 1010.8
20260904110516 49 242 0.0 0.0 0.00 0.00 0.00 97 1010.8
20260904105516 49 248 0.0 0.9 0.00 0.00 0.00 97 1010.6
20260904104516 49 242 0.0 0.0 0.00 0.00 0.00 97 1010.6
20260904103516 48 242 0.0 0.0 0.00 0.00 0.00 97 1010.5
20260904102516 48 242 0.0 0.0 0.00 0.00 0.00 97 1010.4
20260904101515 48 242 0.0 0.0 0.00 0.00 0.00 97 1010.4
20260904100516 47 242 0.0 0.0 0.00 0.00 0.00 96 1010.2
20260904095515 47 242 0.0 0.0 0.00 0.00 0.00 96 1010.1
20260904094516 47 242 0.0 0.0 0.00 0.00 0.00 96 1010.1
20260904093535 47 242 0.0 0.0 0.00 0.00 0.00 96 1010.3
20260904092515 47 242 0.0 0.0 0.00 0.00 0.00 96 1010.5
20260904091515 47 242 0.0 0.0 0.00 0.00 0.00 96 1010.5
20260904090515 47 242 0.0 0.0 0.00 0.00 0.00 96 1010.6
20260904085515 47 242 0.0 0.0 0.00 0.00 0.00 96 1010.6
20260904084515 48 242 0.0 0.0 0.00 0.00 0.00 96 1010.6
20260904083535 48 242 0.0 0.0 0.00 0.00 0.00 96 1010.6
20260904082615 48 242 0.0 0.0 0.00 0.00 0.00 95 1010.7
20260904081536 48 242 0.0 0.0 0.00 0.00 0.00 95 1010.7
20260904080515 48 242 0.0 0.0 0.00 0.00 0.00 95 1010.7
20260904075515 48 242 0.0 0.0 0.00 0.00 0.00 95 1010.7
20260904074515 48 242 0.0 0.0 0.00 0.00 0.00 95 1010.7
20260904073515 48 242 0.0 0.0 0.00 0.00 0.00 95 1010.7
20260904072515 48 242 0.0 0.0 0.00 0.00 0.00 95 1010.7
20260904071515 48 242 0.0 0.0 0.00 0.00 0.00 95 1010.7
20260904070515 49 242 0.0 0.0 0.00 0.00 0.00 94 1010.6
20260904065517 49 242 0.0 0.0 0.00 0.00 0.00 94 1010.5
20260904064517 49 242 0.0 0.0 0.00 0.00 0.00 94 1010.5
20260904063517 49 242 0.0 0.0 0.00 0.00 0.00 93 1010.4
20260904062517 49 242 0.0 0.0 0.00 0.00 0.00 93 1010.2
20260904061517 49 242 0.0 0.0 0.00 0.00 0.00 93 1010.2
20260904060517 49 242 0.0 0.0 0.00 0.00 0.00 93 1010.1
20260904055517 50 242 0.0 0.0 0.00 0.00 0.00 93 1010.1
20260904054517 50 242 0.0 0.0 0.00 0.00 0.00 92 1010.1
20260904053517 50 242 0.0 0.0 0.00 0.00 0.00 92 1010.2
20260904052537 50 242 0.0 0.0 0.00 0.00 0.00 92 1010.2
20260904051517 50 242 0.0 0.0 0.00 0.00 0.00 92 1010.2
20260904050537 51 242 0.0 0.0 0.00 0.00 0.00 92 1010.2
20260904045537 51 242 0.0 0.0 0.00 0.00 0.00 92 1010.2
20260904044517 51 242 0.0 0.0 0.00 0.00 0.00 91 1010.2
20260904043516 51 242 0.0 0.0 0.00 0.00 0.00 91 1010.3
20260904042517 52 242 0.0 0.0 0.00 0.00 0.00 90 1010.3
20260904041517 52 242 0.0 0.0 0.00 0.00 0.00 90 1010.3
20260904040537 52 242 0.0 0.0 0.00 0.00 0.00 89 1010.3
20260904035536 53 242 0.0 0.0 0.00 0.00 0.00 88 1010.1
20260904034516 53 242 0.0 0.0 0.00 0.00 0.00 88 1010.1
20260904033518 53 242 0.0 0.0 0.00 0.00 0.00 88 1010.0
20260904032521 54 242 0.0 0.0 0.00 0.00 0.00 87 1009.7
20260904031537 54 242 0.0 0.0 0.00 0.00 0.00 87 1009.7
20260904030517 55 242 0.0 0.0 0.00 0.00 0.00 86 1009.6
20260904025516 56 242 0.0 0.0 0.00 0.00 0.00 84 1009.6
20260904024517 56 242 0.0 0.0 0.00 0.00 0.00 84 1009.6
20260904023517 57 242 0.0 0.0 0.00 0.00 0.00 82 1009.5
20260904022516 58 242 0.0 0.0 0.00 0.00 0.00 81 1009.3
20260904021516 58 242 0.0 0.0 0.00 0.00 0.00 79 1009.3
20260904020516 59 242 0.0 0.0 0.00 0.00 0.00 78 1009.3
20260904015516 59 248 0.0 2.6 0.00 0.00 0.00 77 1009.3
20260904014537 60 248 0.9 3.5 0.00 0.00 0.00 75 1009.3
20260904013516 60 248 1.7 4.3 0.00 0.00 0.00 74 1009.1
20260904012516 61 248 0.9 4.3 0.00 0.00 0.00 73 1009.0
20260904011516 62 248 0.0 3.5 0.00 0.00 0.00 71 1009.0
20260904010516 62 248 0.9 3.5 0.00 0.00 0.00 70 1008.9
20260904005516 63 248 0.9 5.2 0.00 0.00 0.00 69 1008.8
20260904004536 63 248 0.9 3.5 0.00 0.00 0.00 69 1008.8
20260904003516 64 248 0.0 2.6 0.00 0.00 0.00 68 1008.9
20260904002516 64 248 0.0 0.9 0.00 0.00 0.00 66 1008.8
20260904001516 63 248 0.0 0.9 0.00 0.00 0.00 67 1008.8
20260904000516 63 248 0.0 0.9 0.00 0.00 0.00 67 1009.0
20260903235516 62 248 0.0 0.9 0.00 0.00 0.00 66 1009.1
20260903234516 62 248 0.0 1.7 0.00 0.01 0.00 65 1009.1
20260903233516 62 248 0.0 1.7 0.00 0.01 0.00 66 1009.1
20260903232516 63 248 0.9 2.6 0.00 0.01 0.00 66 1009.1
20260903231516 63 248 0.0 0.9 0.00 0.01 0.00 70 1009.1
20260903230516 62 248 0.9 3.5 0.00 0.01 0.00 69 1009.1
20260903225516 62 248 0.9 4.3 0.00 0.01 0.00 73 1009.3
20260903224516 61 248 0.9 3.5 0.00 0.01 0.00 74 1009.3
20260903223516 60 270 0.9 2.6 0.00 0.01 0.00 75 1009.4
20260903222536 60 270 0.0 0.9 0.00 0.01 0.00 76 1009.5
20260903221516 59 270 0.9 3.5 0.00 0.01 0.00 76 1009.5
20260903220516 59 270 0.9 3.5 0.00 0.01 0.00 82 1009.6
20260903215516 58 270 0.0 2.6 0.00 0.01 0.00 83 1009.6
20260903214516 58 270 0.9 2.6 0.00 0.01 0.00 84 1009.6
20260903213516 58 270 2.6 4.3 0.00 0.01 0.00 84 1009.5
20260903212536 58 270 2.6 5.2 0.00 0.01 0.00 84 1009.3
20260903211516 59 293 0.9 3.5 0.00 0.01 0.00 83 1009.3
20260903210515 59 294 0.0 0.0 0.00 0.01 0.00 83 1009.2
20260903205516 59 293 0.0 0.9 0.00 0.01 0.00 81 1009.1
20260903204516 60 293 0.0 2.6 0.00 0.01 0.00 79 1009.1
20260903203536 60 293 0.0 2.6 0.00 0.01 0.00 76 1009.0
20260903202515 61 293 0.9 4.3 0.00 0.01 0.00 74 1008.8
20260903201536 61 293 0.9 4.3 0.00 0.01 0.00 74 1008.8
20260903200536 61 23 0.0 2.6 0.00 0.01 0.00 71 1008.7
20260903195516 62 23 0.9 3.5 0.00 0.01 0.00 71 1008.5
20260903194515 62 23 0.0 0.9 0.00 0.01 0.00 71 1008.5
20260903193515 62 23 0.0 3.5 0.00 0.01 0.00 71 1008.3
20260903192515 63 23 0.0 2.6 0.00 0.01 0.00 71 1008.1
20260903191515 63 23 0.0 1.7 0.00 0.01 0.00 69 1008.1
20260903190515 64 68 0.9 2.6 0.00 0.01 0.00 67 1008.0
20260903185515 64 68 0.9 2.6 0.00 0.01 0.00 65 1007.9
20260903184515 65 68 0.9 4.3 0.00 0.01 0.00 65 1007.9
20260903183515 65 68 0.9 6.1 0.00 0.01 0.00 65 1007.7
20260903182515 64 180 0.0 2.6 0.00 0.01 0.00 65 1007.6
20260903181521 63 180 0.9 4.3 0.00 0.01 0.00 69 1007.6
20260903180515 62 203 0.9 5.2 0.00 0.01 0.00 70 1007.5
20260903175515 62 158 1.7 6.1 0.00 0.01 0.00 70 1007.4
20260903174538 62 225 2.6 7.0 0.00 0.01 0.00 70 1007.4
20260903173517 62 225 1.7 5.2 0.00 0.01 0.00 70 1007.2